QPF
0.00 0.00 0.00 0.00 0.00 0.00 0.00 0.00 0.00 0.00 0.00 0.00 0.00 0.00 0.00 0.00 0.00 0.00 0.00 0.00 0.00 0.00 0.00 0.00 0.00 0.00 0.00 0.00 0.00 0.00 0.00 0.00 0.00 0.00 0.00 0.00 0.00 0.00 0.00 0.00 0.00 0.03 0.13 0.15
0.00 0.00 0.00 0.00 0.00 0.00 0.00 0.00 0.00 0.00 0.00 0.00 0.00 0.00 0.00 0.00 0.00 0.00 0.00 0.00 0.00 0.00 0.00 0.00 0.00 0.00 0.00 0.00 0.00 0.00 0.00 0.00 0.00 0.00 0.00 0.00 0.01 0.01 0.01 0.03 0.06 0.09 0.11 0.13
0.00 0.00 0.00 0.00 0.00 0.00 0.00 0.00 0.00 0.00 0.00 0.00 0.00 0.00 0.00 0.00 0.00 0.00 0.00 0.00 0.00 0.00 0.00 0.00 0.00 0.00 0.00 0.00 0.00 0.00 0.00 0.00 0.00 0.00 0.01 0.00 0.00 0.00 0.00 0.00 0.00 0.00 0.01 0.03
0.00 0.00 0.00 0.00 0.00 0.00 0.00 0.00 0.00 0.00 0.00 0.00 0.00 0.00 0.00 0.00 0.00 0.00 0.00 0.00 0.00 0.00 0.00 0.00 0.00 0.00 0.00 0.00 0.00 0.00 0.00 0.00 0.00 0.00 0.00 0.00 0.00 0.00 0.00 0.00 0.00 0.00 0.00 0.00
0.00 0.00 0.00 0.00 0.00 0.00 0.00 0.00 0.00 0.00 0.00 0.00 0.00 0.00 0.00 0.00 0.00 0.00 0.00 0.00 0.00 0.00 0.00 0.00 0.00 0.00 0.00 0.00 0.00 0.00 0.00 0.00 0.00 0.00 0.00 0.00 0.00 0.00 0.00 0.00 0.00 0.00 0.00 0.00
0.00 0.00 0.00 0.00 0.00 0.00 0.00 0.00 0.00 0.00 0.00 0.00 0.00 0.00 0.00 0.00 0.00 0.00 0.00 0.00 0.00 0.00 0.00 0.00 0.00 0.00 0.00 0.00 0.00 0.00 0.00 0.00 0.00 0.00 0.00 0.00 0.00 0.00 0.00 0.00 0.00 0.00 0.00 0.00
0.00 0.00 0.00 0.00 0.00 0.00 0.00 0.00 0.00 0.00 0.00 0.00 0.00 0.00 0.00 0.00 0.00 0.00 0.00 0.00 0.00 0.00 0.00 0.00 0.00 0.00 0.00 0.00 0.00 0.00 0.00 0.00 0.00 0.00 0.00 0.00 0.00 0.00 0.00 0.00 0.00 0.00 0.00 0.00
0.00 0.00 0.00 0.00 0.00 0.00 0.00 0.00 0.00 0.00 0.00 0.00 0.00 0.00 0.00 0.00 0.00 0.00 0.00 0.00 0.01 0.00 0.00 0.00 0.00 0.00 0.00 0.00 0.00 0.00 0.00 0.00 0.00 0.00 0.00 0.00 0.00 0.00 0.00 0.00 0.00 0.00 0.00 0.00
0.00 0.00 0.00 0.00 0.00 0.00 0.00 0.00 0.00 0.00 0.00 0.00 0.00 0.00 0.00 0.00 0.00 0.00 0.00 0.00 0.00 0.00 0.00 0.00 0.00 0.00 0.00 0.00 0.00 0.00 0.00 0.00 0.00 0.00 0.00 0.00 0.00 0.00 0.00 0.00 0.00 0.00 0.00 0.00
0.00 0.00 0.00 0.00 0.00 0.00 0.00 0.00 0.00 0.00 0.00 0.00 0.00 0.00 0.00 0.00 0.00 0.00 0.00 0.00 0.00 0.00 0.00 0.00 0.00 0.00 0.00 0.00 0.00 0.00 0.00 0.00 0.00 0.00 0.00 0.00 0.00 0.00 0.00 0.00 0.00 0.00 0.00 0.00
0.00 0.00 0.00 0.00 0.00 0.00 0.00 0.00 0.00 0.00 0.00 0.00 0.00 0.00 0.00 0.00 0.00 0.00 0.00 0.00 0.00 0.00 0.00 0.00 0.00 0.00 0.00 0.00 0.00 0.00 0.00 0.00 0.00 0.00 0.00 0.00 0.00 0.00 0.00 0.00 0.00 0.00 0.00 0.00
0.00 0.00 0.00 0.00 0.00 0.00 0.00 0.00 0.00 0.00 0.00 0.00 0.00 0.00 0.00 0.00 0.00 0.00 0.00 0.00 0.00 0.00 0.00 0.00 0.00 0.00 0.00 0.00 0.00 0.00 0.00 0.00 0.00 0.00 0.00 0.00 0.00 0.00 0.00 0.00 0.00 0.00 0.00 0.00
0.00 0.00 0.00 0.00 0.00 0.00 0.00 0.00 0.00 0.00 0.00 0.00 0.00 0.00 0.00 0.00 0.00 0.00 0.00 0.00 0.00 0.00 0.00 0.00 0.00 0.00 0.00 0.00 0.00 0.00 0.00 0.00 0.00 0.00 0.00 0.00 0.00 0.00 0.00 0.00 0.00 0.00 0.00 0.00
0.00 0.00 0.00 0.00 0.00 0.00 0.00 0.00 0.00 0.00 0.00 0.00 0.00 0.00 0.00 0.00 0.00 0.00 0.00 0.00 0.00 0.00 0.00 0.00 0.00 0.00 0.00 0.00 0.00 0.00 0.00 0.00 0.00 0.00 0.00 0.00 0.00 0.00 0.00 0.00 0.00 0.00 0.00 0.00
0.00 0.00 0.00 0.00 0.00 0.00 0.00 0.00 0.00 0.00 0.00 0.00 0.00 0.00 0.00 0.00 0.00 0.00 0.00 0.00 0.00 0.00 0.00 0.00 0.00 0.00 0.00 0.00 0.00 0.00 0.00 0.00 0.00 0.00 0.00 0.00 0.00 0.00 0.00 0.00 0.00 0.00 0.00 0.00
0.00 0.00 0.00 0.00 0.00 0.00 0.00 0.00 0.00 0.00 0.00 0.00 0.00 0.00 0.00 0.00 0.00 0.00 0.00 0.00 0.00 0.00 0.00 0.00 0.00 0.00 0.00 0.00 0.00 0.00 0.00 0.00 0.00 0.00 0.00 0.00 0.00 0.00 0.00 0.00 0.00 0.00 0.00 0.00
0.00 0.00 0.00 0.00 0.00 0.00 0.00 0.00 0.00 0.00 0.00 0.00 0.00 0.00 0.00 0.00 0.00 0.00 0.00 0.00 0.00 0.00 0.00 0.00 0.00 0.00 0.00 0.00 0.00 0.00 0.00 0.00 0.00 0.00 0.00 0.00 0.00 0.00 0.00 0.00 0.00 0.00 0.00 0.00
0.00 0.00 0.00 0.00 0.00 0.00 0.00 0.00 0.00 0.00 0.00 0.00 0.00 0.00 0.00 0.00 0.00 0.00 0.00 0.00 0.00 0.00 0.00 0.00 0.00 0.00 0.00 0.00 0.00 0.00 0.00 0.00 0.00 0.00 0.00 0.00 0.00 0.00 0.00 0.00 0.00 0.00 0.00 0.00
0.00 0.00 0.00 0.00 0.00 0.00 0.00 0.00 0.00 0.00 0.00 0.00 0.00 0.00 0.00 0.00 0.00 0.00 0.00 0.00 0.00 0.00 0.00 0.00 0.00 0.00 0.00 0.00 0.00 0.00 0.00 0.00 0.00 0.00 0.00 0.00 0.00 0.00 0.00 0.00 0.00 0.00 0.00 0.00
0.00 0.00 0.00 0.00 0.00 0.00 0.00 0.00 0.00 0.00 0.00 0.00 0.00 0.00 0.00 0.00 0.00 0.00 0.00 0.00 0.00 0.00 0.00 0.00 0.00 0.00 0.00 0.00 0.00 0.00 0.00 0.00 0.00 0.00 0.00 0.00 0.00 0.00 0.00 0.04 0.04 0.01 0.00 0.00
0.00 0.00 0.00 0.00 0.00 0.00 0.00 0.00 0.00 0.00 0.00 0.00 0.00 0.00 0.00 0.00 0.00 0.00 0.00 0.01 0.00 0.00 0.00 0.00 0.00 0.00 0.00 0.00 0.00 0.00 0.00 0.00 0.00 0.00 0.00 0.00 0.01 0.02 0.03 0.02 0.01 0.00 0.00 0.00
0.00 0.00 0.00 0.00 0.00 0.00 0.00 0.00 0.00 0.00 0.00 0.00 0.00 0.00 0.00 0.00 0.00 0.00 0.00 0.00 0.00 0.00 0.00 0.00 0.00 0.00 0.00 0.00 0.00 0.00 0.00 0.00 0.00 0.02 0.01 0.02 0.06 0.07 0.03 0.01 0.01 0.00 0.00 0.00
0.01 0.00 0.00 0.00 0.00 0.00 0.00 0.00 0.00 0.00 0.00 0.00 0.00 0.00 0.00 0.00 0.00 0.00 0.03 0.01 0.00 0.00 0.00 0.00 0.00 0.00 0.00 0.00 0.00 0.00 0.00 0.00 0.06 0.12 0.04 0.08 0.07 0.03 0.05 0.03 0.01 0.00 0.00 0.00
0.03 0.02 0.02 0.00 0.00 0.01 0.02 0.00 0.00 0.00 0.00 0.00 0.00 0.00 0.00 0.00 0.00 0.01 0.00 0.00 0.00 0.00 0.00 0.00 0.00 0.00 0.00 0.00 0.00 0.00 0.00 0.01 0.07 0.10 0.09 0.13 0.09 0.12 0.12 0.05 0.02 0.00 0.00 0.00
0.02 0.00 0.03 0.01 0.00 0.00 0.00 0.00 0.00 0.00 0.01 0.04 0.05 0.01 0.00 0.00 0.00 0.03 0.01 0.00 0.00 0.00 0.00 0.00 0.00 0.00 0.00 0.00 0.00 0.00 0.00 0.00 0.00 0.01 0.02 0.05 0.06 0.05 0.03 0.00 0.00 0.00 0.00 0.00
0.00 0.00 0.00 0.00 0.00 0.00 0.00 0.00 0.00 0.00 0.00 0.02 0.05 0.01 0.00 0.00 0.01 0.01 0.00 0.00 0.00 0.00 0.00 0.00 0.00 0.00 0.00 0.00 0.00 0.00 0.00 0.00 0.00 0.00 0.00 0.00 0.00 0.00 0.00 0.00 0.00 0.00 0.00 0.00
0.00 0.00 0.00 0.00 0.00 0.00 0.00 0.00 0.00 0.00 0.00 0.00 0.02 0.01 0.01 0.02 0.01 0.00 0.00 0.00 0.00 0.00 0.00 0.00 0.00 0.00 0.00 0.00 0.00 0.00 0.00 0.00 0.00 0.00 0.00 0.00 0.00 0.00 0.00 0.00 0.00 0.00 0.00 0.00
MSLP
996.57 995.99 995.24 995.29 995.57 996.34 996.25 995.92 995.28 994.48 994.17 994.42 994.85 995.77 996.50 997.00 998.25 999.81 1000.82 1001.41 1002.08 1003.02 1004.67 1005.88 1006.60 1007.33 1007.77 1007.92 1008.57 1008.67 1009.14 1009.68 1010.11 1010.69 1010.81 1011.18 1011.51 1011.78 1011.92 1011.94 1011.88 1011.81 1011.85 1011.88
996.46 996.30 995.53 994.76 994.52 994.57 995.07 995.29 995.17 994.59 993.72 993.58 994.50 995.14 995.98 997.04 997.92 999.37 1000.32 1001.01 1001.94 1003.04 1004.53 1005.49 1006.42 1007.16 1007.78 1008.10 1008.77 1009.41 1010.04 1010.41 1010.70 1011.09 1011.30 1011.37 1011.49 1011.76 1011.74 1011.84 1011.90 1011.82 1011.65 1011.62
996.21 996.03 995.47 994.33 994.15 994.20 994.28 994.25 994.85 994.32 994.02 993.95 994.22 994.61 995.41 996.52 997.65 998.87 999.93 1000.65 1001.53 1002.51 1003.76 1004.76 1005.86 1006.71 1007.50 1008.17 1008.89 1009.57 1010.08 1010.45 1010.70 1010.92 1011.07 1011.18 1011.32 1011.43 1011.51 1011.61 1011.62 1011.52 1011.39 1011.51
996.12 995.87 994.32 994.02 994.28 994.26 994.22 994.19 994.36 994.37 994.16 994.06 994.59 994.83 995.03 995.51 996.22 997.57 999.19 1000.18 1001.14 1001.79 1002.99 1004.21 1005.24 1006.26 1007.22 1008.16 1008.96 1009.50 1009.91 1010.08 1010.49 1010.87 1011.27 1011.59 1011.79 1011.96 1012.07 1012.07 1012.05 1012.04 1011.88 1011.77
995.61 995.20 994.58 994.07 993.75 993.20 993.13 993.77 993.94 993.93 994.03 993.97 994.51 994.71 994.75 994.96 995.28 995.97 997.47 999.23 1000.53 1001.37 1002.54 1003.88 1004.82 1006.21 1007.17 1007.86 1008.71 1009.23 1009.57 1010.14 1010.76 1011.12 1011.45 1011.68 1011.87 1011.96 1012.10 1012.15 1012.03 1011.86 1011.56 1011.45
995.43 994.63 993.46 993.43 992.89 992.92 992.77 992.42 993.19 993.39 993.49 993.89 994.45 994.27 994.27 994.66 994.99 995.16 995.99 998.11 999.87 1001.09 1002.51 1004.05 1005.01 1005.98 1006.93 1007.63 1008.49 1009.18 1009.86 1010.45 1010.88 1011.27 1011.53 1011.68 1012.04 1012.25 1012.12 1012.00 1011.85 1011.57 1011.54 1011.57
994.90 994.12 993.67 993.31 992.61 992.37 992.68 993.00 992.96 992.95 992.97 993.54 993.98 994.28 994.60 995.03 995.22 995.23 995.03 997.14 999.21 1000.69 1002.52 1003.99 1005.15 1005.78 1006.63 1007.57 1008.40 1009.10 1009.86 1010.55 1011.04 1011.40 1011.68 1011.87 1011.96 1012.19 1012.31 1012.12 1011.86 1011.68 1011.43 1011.23
994.78 994.10 993.58 993.34 993.30 993.03 993.46 993.73 994.15 993.70 993.43 993.62 994.18 994.82 995.74 996.14 995.84 994.79 995.20 997.09 999.46 1001.30 1002.98 1004.06 1004.96 1005.84 1006.46 1007.45 1008.54 1009.53 1010.01 1010.32 1010.69 1011.15 1011.51 1011.58 1011.84 1012.05 1012.25 1011.98 1011.67 1011.12 1010.61 1010.31
994.24 993.89 994.65 994.30 994.39 994.71 994.84 995.24 995.33 995.30 994.98 995.35 995.51 995.86 996.71 996.60 996.74 996.45 996.99 998.76 1000.39 1002.29 1003.55 1004.74 1005.19 1005.85 1006.74 1007.82 1009.04 1009.86 1010.32 1010.56 1010.72 1010.81 1011.30 1011.42 1011.76 1011.79 1011.25 1011.12 1010.61 1010.09 1009.77 1009.33
994.39 994.67 994.84 995.22 995.23 995.45 995.66 995.74 996.03 996.23 996.21 996.28 996.29 996.99 997.53 997.57 997.86 998.87 999.88 1000.88 1001.82 1003.16 1004.44 1005.66 1006.13 1006.64 1007.38 1008.58 1009.13 1009.48 1010.31 1010.19 1010.73 1011.04 1010.85 1011.18 1010.98 1010.99 1010.79 1010.33 1010.32 1010.21 1010.03 1009.60
994.38 995.15 996.08 995.57 995.82 996.05 996.36 996.61 996.64 996.80 996.83 997.02 997.52 998.26 998.79 999.36 1000.02 1000.74 1001.64 1002.36 1003.13 1004.43 1005.94 1006.88 1007.21 1007.60 1008.39 1008.99 1009.75 1010.48 1011.35 1010.60 1010.40 1010.74 1010.35 1010.46 1010.34 1010.15 1010.17 1010.23 1010.15 1010.40 1010.49 1010.35
994.35 995.32 995.31 996.04 996.60 996.79 997.05 997.35 997.54 997.73 997.99 998.43 998.98 999.65 1000.19 1000.94 1001.91 1002.61 1003.31 1004.12 1005.20 1006.29 1007.09 1007.56 1007.96 1008.56 1008.82 1008.92 1009.45 1010.18 1010.72 1010.72 1009.95 1010.43 1010.05 1009.78 1009.65 1009.37 1009.58 1009.45 1009.43 1009.76 1010.00 1010.22
995.78 995.59 996.20 996.67 997.07 997.48 997.71 998.02 998.47 998.81 999.24 999.70 1000.35 1000.97 1001.75 1002.54 1003.47 1004.32 1005.01 1005.82 1006.56 1007.27 1008.02 1008.35 1008.63 1009.92 1009.81 1009.78 1009.08 1010.21 1010.59 1010.75 1010.80 1010.11 1009.87 1009.85 1009.37 1009.15 1008.72 1008.38 1009.03 1009.11 1009.16 1009.29
996.69 996.90 996.97 997.15 997.58 997.96 998.20 998.63 999.03 999.47 1000.03 1000.50 1001.20 1002.01 1003.17 1004.12 1004.82 1005.45 1006.21 1007.00 1007.58 1008.15 1008.16 1008.73 1009.24 1008.76 1009.87 1009.84 1010.44 1010.30 1010.51 1010.84 1010.44 1009.91 1009.56 1009.43 1009.50 1009.78 1009.38 1008.81 1008.48 1008.14 1008.15 1008.79
997.83 997.33 997.58 998.31 998.41 998.74 998.98 999.25 999.82 1000.31 1000.95 1001.44 1002.23 1003.03 1003.73 1004.51 1005.36 1006.09 1006.62 1007.30 1007.62 1007.99 1008.34 1008.51 1009.25 1009.42 1009.84 1010.07 1010.21 1010.50 1010.64 1010.15 1009.94 1009.82 1009.97 1010.23 1010.29 1009.94 1009.48 1008.73 1008.36 1008.23 1008.02 1007.89
998.43 998.39 998.53 998.98 999.46 999.57 999.66 999.90 1000.33 1001.23 1001.77 1002.34 1003.09 1003.83 1004.65 1005.49 1006.18 1006.70 1007.15 1007.51 1007.73 1008.13 1008.77 1009.25 1009.60 1009.83 1010.28 1010.61 1010.66 1010.32 1010.02 1010.48 1010.70 1010.56 1010.45 1010.38 1009.88 1009.29 1009.19 1008.96 1008.69 1008.50 1008.61 1008.85
999.32 999.58 999.78 1000.03 1000.16 1000.37 1000.62 1000.77 1001.13 1002.17 1002.97 1003.55 1004.25 1004.85 1005.51 1006.13 1006.73 1007.21 1007.56 1008.05 1008.61 1009.13 1009.60 1009.97 1010.34 1010.64 1010.67 1010.57 1010.45 1010.31 1010.59 1010.65 1011.01 1010.69 1010.29 1010.03 1009.94 1009.76 1009.70 1009.98 1010.06 1010.24 1010.62 1010.69
1001.32 1001.37 1001.35 1001.39 1001.32 1001.52 1001.80 1002.18 1002.69 1003.28 1003.96 1004.50 1005.07 1005.61 1006.13 1006.61 1007.29 1007.89 1008.44 1008.94 1009.14 1009.48 1010.01 1010.64 1011.26 1011.23 1011.43 1011.62 1011.75 1011.28 1011.00 1010.88 1010.72 1010.69 1010.59 1010.51 1010.90 1011.26 1011.25 1011.74 1011.82 1011.76 1011.48 1011.23
1002.15 1002.07 1002.01 1001.99 1001.94 1002.10 1002.67 1002.93 1003.67 1004.54 1005.10 1005.47 1005.81 1006.25 1006.76 1007.34 1007.96 1008.50 1008.92 1009.24 1009.37 1009.70 1010.66 1011.28 1012.05 1011.83 1011.99 1012.83 1012.53 1011.52 1011.15 1011.28 1011.26 1011.32 1011.60 1012.08 1012.26 1012.54 1012.66 1012.74 1012.57 1012.20 1011.68 1011.13
1003.13 1003.01 1002.90 1002.84 1002.69 1002.93 1003.42 1004.03 1004.61 1005.21 1005.63 1006.12 1006.62 1007.08 1007.54 1008.05 1008.53 1008.95 1009.22 1009.69 1010.15 1010.52 1010.93 1011.83 1012.12 1012.23 1012.22 1012.46 1012.62 1011.90 1012.00 1012.06 1012.38 1012.74 1013.00 1013.38 1013.37 1013.38 1013.23 1013.01 1012.66 1012.21 1011.81 1011.42
1004.07 1004.01 1003.94 1003.96 1004.10 1004.32 1004.65 1005.04 1005.49 1005.94 1006.29 1006.64 1007.10 1007.57 1008.07 1008.53 1008.91 1009.13 1009.15 1009.37 1010.78 1011.33 1011.81 1012.33 1012.19 1012.32 1012.46 1012.79 1012.49 1012.60 1013.03 1013.35 1013.58 1013.76 1013.99 1014.03 1013.99 1013.73 1013.46 1013.12 1012.83 1012.49 1012.10 1011.67
1004.69 1004.74 1004.87 1005.03 1005.15 1005.31 1005.48 1005.81 1006.33 1006.66 1006.96 1007.33 1007.70 1008.17 1008.49 1008.75 1008.98 1009.26 1009.58 1009.94 1011.15 1012.10 1011.52 1011.94 1012.94 1013.74 1013.44 1013.41 1013.10 1013.45 1013.95 1014.20 1014.41 1014.71 1014.66 1014.55 1014.31 1014.01 1013.75 1013.49 1013.19 1012.77 1012.37 1011.86
1005.63 1005.57 1005.66 1005.64 1005.80 1006.06 1006.21 1006.49 1006.81 1007.15 1007.57 1007.93 1008.20 1008.45 1008.42 1008.29 1008.45 1008.64 1009.90 1010.63 1011.09 1011.85 1011.92 1012.97 1014.16 1014.04 1013.79 1013.24 1013.52 1014.06 1014.50 1014.80 1015.20 1015.25 1015.03 1014.90 1014.65 1014.46 1014.19 1013.83 1013.52 1013.12 1012.65 1012.25
1007.02 1006.91 1006.62 1006.37 1006.41 1006.61 1007.15 1007.40 1007.26 1007.51 1007.91 1008.16 1008.28 1008.57 1008.55 1008.05 1008.80 1009.30 1010.53 1011.46 1012.10 1012.20 1012.34 1013.76 1014.11 1014.16 1014.03 1013.33 1013.60 1014.02 1014.54 1014.88 1015.46 1015.36 1015.38 1015.26 1015.02 1014.77 1014.47 1014.15 1013.78 1013.27 1012.94 1012.14
1007.69 1007.90 1007.86 1007.66 1007.30 1007.09 1007.50 1007.72 1007.76 1007.95 1008.14 1008.44 1009.09 1009.07 1009.20 1009.04 1009.10 1010.20 1010.80 1012.04 1012.86 1012.58 1013.09 1014.41 1014.31 1014.03 1013.42 1013.49 1013.88 1013.97 1014.23 1014.46 1014.95 1014.88 1014.76 1014.87 1014.68 1014.66 1014.48 1014.16 1013.74 1013.54 1013.20 1012.19
1007.82 1007.80 1008.04 1008.06 1007.94 1007.56 1007.36 1007.55 1007.59 1007.74 1008.21 1008.72 1009.33 1009.31 1009.66 1009.85 1010.49 1011.08 1011.53 1012.00 1012.61 1013.25 1013.44 1013.61 1013.59 1013.47 1013.60 1013.62 1013.64 1013.74 1013.83 1013.93 1014.00 1014.04 1014.02 1013.90 1013.82 1013.76 1013.86 1013.87 1013.69 1013.36 1013.02 1012.05
1007.54 1007.72 1007.40 1007.43 1007.62 1007.45 1007.87 1008.56 1008.70 1008.21 1008.70 1008.67 1009.71 1010.12 1010.17 1010.77 1011.17 1011.52 1011.85 1012.12 1012.80 1013.12 1012.54 1012.56 1012.88 1013.44 1013.42 1013.58 1013.42 1013.55 1013.50 1013.63 1014.08 1013.91 1013.53 1013.24 1013.24 1013.22 1012.94 1012.87 1012.72 1012.47 1012.12 1011.72
Thickness
5857 5871 5884 5879 5871 5864 5859 5873 5864 5890 5894 5909 5917 5908 5912 5920 5910 5899 5894 5894 5894 5890 5879 5874 5871 5868 5867 5867 5861 5861 5854 5847 5841 5835 5833 5828 5823 5819 5816 5814 5812 5811 5807 5804
5837 5857 5868 5867 5883 5887 5876 5877 5878 5889 5897 5935 5931 5930 5912 5909 5903 5894 5892 5892 5891 5886 5877 5872 5867 5863 5861 5860 5854 5850 5841 5836 5834 5829 5826 5824 5821 5815 5812 5809 5805 5804 5802 5799
5811 5847 5852 5841 5868 5875 5880 5890 5879 5867 5897 5922 5916 5918 5912 5906 5902 5894 5892 5891 5889 5885 5879 5876 5869 5865 5857 5855 5851 5842 5836 5833 5830 5827 5823 5820 5817 5813 5809 5806 5804 5800 5798 5795
5814 5834 5801 5857 5887 5884 5875 5884 5891 5892 5901 5911 5908 5917 5922 5925 5914 5902 5896 5890 5887 5888 5883 5878 5874 5866 5859 5852 5843 5837 5833 5832 5828 5822 5815 5810 5805 5799 5796 5793 5789 5786 5785 5784
5809 5810 5835 5852 5869 5876 5869 5863 5893 5891 5899 5909 5910 5913 5910 5927 5930 5921 5910 5900 5893 5891 5883 5874 5869 5860 5852 5846 5839 5833 5828 5823 5817 5812 5806 5800 5794 5791 5787 5782 5779 5777 5778 5776
5815 5800 5800 5847 5885 5900 5898 5854 5898 5901 5900 5899 5900 5874 5895 5922 5928 5927 5923 5907 5892 5887 5877 5866 5860 5855 5844 5837 5829 5822 5817 5811 5807 5801 5795 5790 5785 5780 5779 5776 5772 5770 5766 5765
5808 5810 5829 5866 5890 5903 5837 5850 5902 5907 5908 5901 5890 5898 5907 5912 5912 5921 5927 5907 5895 5881 5867 5859 5853 5847 5835 5829 5819 5816 5809 5801 5794 5790 5784 5780 5776 5771 5766 5765 5764 5760 5757 5757
5808 5804 5797 5872 5870 5852 5869 5882 5884 5892 5900 5896 5897 5896 5890 5891 5898 5914 5916 5898 5884 5865 5855 5852 5846 5836 5829 5819 5814 5803 5796 5790 5784 5777 5771 5769 5765 5761 5755 5752 5750 5751 5753 5751
5822 5825 5845 5860 5857 5865 5871 5864 5869 5873 5885 5884 5882 5880 5879 5881 5885 5892 5889 5877 5868 5852 5841 5837 5833 5827 5815 5807 5796 5785 5778 5774 5772 5769 5764 5761 5750 5747 5748 5746 5746 5745 5743 5742
5821 5821 5832 5841 5853 5856 5861 5861 5866 5869 5871 5873 5870 5869 5867 5872 5872 5865 5860 5854 5849 5835 5826 5815 5815 5813 5804 5790 5783 5775 5760 5762 5756 5750 5750 5745 5744 5738 5734 5736 5731 5726 5722 5722
5811 5810 5815 5828 5837 5845 5848 5854 5856 5861 5863 5861 5859 5853 5852 5849 5847 5844 5840 5836 5832 5820 5806 5797 5797 5792 5783 5776 5766 5753 5740 5744 5746 5739 5736 5729 5728 5725 5722 5719 5716 5707 5701 5697
5792 5811 5811 5813 5827 5836 5834 5836 5841 5842 5842 5845 5842 5835 5835 5829 5824 5821 5817 5814 5805 5796 5790 5784 5780 5772 5767 5766 5756 5739 5736 5736 5732 5722 5722 5718 5713 5710 5708 5703 5701 5694 5688 5680
5791 5812 5814 5817 5822 5826 5823 5826 5828 5827 5827 5822 5822 5819 5814 5809 5805 5797 5797 5790 5783 5775 5769 5765 5758 5740 5741 5741 5744 5721 5717 5711 5706 5710 5706 5697 5697 5693 5690 5695 5683 5680 5675 5671
5799 5800 5795 5804 5801 5814 5816 5816 5816 5816 5814 5811 5807 5804 5796 5787 5785 5781 5775 5770 5767 5761 5761 5753 5745 5746 5738 5735 5724 5717 5707 5696 5698 5696 5693 5688 5681 5673 5673 5672 5670 5672 5670 5659
5783 5795 5794 5795 5800 5799 5804 5803 5797 5794 5794 5792 5792 5786 5783 5776 5770 5766 5764 5760 5756 5752 5748 5745 5733 5730 5725 5716 5710 5701 5694 5693 5690 5686 5678 5668 5662 5660 5659 5661 5659 5657 5656 5654
5774 5779 5782 5779 5779 5784 5787 5787 5781 5778 5779 5778 5774 5771 5767 5762 5757 5753 5750 5747 5741 5736 5731 5725 5717 5713 5706 5698 5692 5689 5686 5674 5668 5665 5660 5655 5654 5654 5649 5646 5644 5641 5636 5630
5757 5755 5761 5761 5765 5768 5769 5774 5770 5766 5761 5758 5754 5753 5749 5744 5739 5735 5733 5731 5724 5717 5711 5705 5698 5694 5691 5687 5681 5676 5668 5661 5649 5649 5647 5646 5642 5639 5634 5626 5621 5615 5606 5601
5744 5747 5750 5750 5751 5751 5752 5753 5751 5748 5743 5743 5741 5737 5732 5728 5720 5716 5712 5710 5706 5701 5696 5690 5681 5678 5673 5666 5659 5656 5651 5647 5642 5635 5632 5628 5620 5613 5608 5599 5595 5591 5589 5586
5733 5734 5738 5740 5744 5743 5740 5740 5737 5732 5729 5728 5725 5721 5718 5714 5707 5703 5700 5694 5691 5685 5677 5675 5664 5663 5658 5644 5641 5643 5637 5629 5622 5615 5607 5599 5596 5588 5584 5580 5578 5577 5578 5579
5718 5722 5726 5728 5733 5732 5727 5726 5724 5719 5718 5714 5709 5705 5700 5697 5694 5689 5686 5678 5677 5672 5667 5660 5656 5651 5646 5638 5628 5628 5619 5610 5599 5588 5579 5573 5571 5570 5569 5567 5568 5570 5570 5569
5704 5707 5709 5711 5711 5713 5713 5711 5708 5703 5703 5701 5696 5691 5686 5683 5681 5679 5675 5670 5664 5657 5652 5645 5645 5640 5634 5624 5620 5612 5600 5588 5577 5569 5562 5557 5555 5557 5559 5561 5562 5563 5562 5562
5695 5696 5696 5697 5696 5696 5698 5698 5694 5691 5688 5685 5682 5678 5674 5671 5670 5667 5665 5658 5651 5640 5647 5642 5631 5618 5616 5609 5607 5597 5585 5574 5562 5551 5548 5547 5547 5550 5552 5554 5554 5555 5555 5555
5682 5684 5684 5684 5684 5683 5685 5684 5681 5679 5674 5671 5667 5665 5665 5665 5666 5660 5649 5646 5644 5636 5637 5625 5610 5607 5604 5604 5594 5584 5574 5564 5555 5550 5548 5546 5546 5546 5547 5548 5548 5548 5549 5548
5663 5661 5664 5671 5673 5670 5664 5666 5670 5669 5665 5662 5659 5657 5656 5658 5651 5652 5639 5632 5627 5626 5625 5609 5602 5597 5594 5598 5589 5580 5571 5563 5553 5550 5547 5543 5542 5541 5542 5543 5543 5545 5544 5548
5655 5649 5646 5649 5654 5658 5657 5659 5659 5658 5656 5653 5646 5647 5645 5646 5641 5634 5632 5620 5611 5614 5608 5592 5592 5592 5595 5591 5583 5578 5572 5566 5558 5556 5554 5549 5548 5544 5542 5543 5544 5542 5541 5547
5651 5649 5646 5646 5648 5653 5657 5657 5656 5655 5651 5642 5638 5638 5633 5632 5625 5620 5617 5613 5607 5600 5597 5594 5593 5592 5588 5584 5583 5580 5575 5570 5566 5563 5560 5558 5555 5553 5549 5546 5544 5543 5542 5548
5654 5641 5653 5651 5651 5654 5650 5643 5642 5648 5641 5638 5628 5624 5622 5614 5610 5607 5604 5602 5596 5593 5598 5597 5593 5585 5584 5581 5581 5578 5576 5571 5562 5563 5563 5563 5560 5557 5557 5554 5552 5550 5550 5550